Weather History for Meadville, PA

Change the Weather History Date:

Wednesday, November 7, 2012

  Actual Average Record
Temperature  
Mean Temperature 34 °F -  
Max Temperature 39 °F 47 °F 74 °F (1975)
Min Temperature 28 °F 33 °F 20 °F (1960)
Degree Days  
Heating Degree Days 32    
Moisture  
Dew Point 21 °F    
Average Humidity 62    
Maximum Humidity 75    
Minimum Humidity 43    
Precipitation  
Precipitation 0.00 in - - ()
Sea Level Pressure  
Sea Level Pressure 30.03 in    
Wind  
Wind Speed 6 mph (NE)    
Max Wind Speed 12 mph    
Max Gust Speed -    
Visibility 10 miles    
Events      
Averages and records for this station are not official NWS values.
T = Trace of Precipitation, MM = Missing Value Source: NWS Daily Summary

Daily Weather History Graph

Daily Weather History Graph

Search for Another Location

Airport:

Trip Planner

Search our weather history database for the weather conditions in past years. The results will help you decide how hot, cold, wet, or windy it might be!

Date:

Astronomy

Nov. 07, 2012 Rise Set
Actual Time 7:00 AM EST 5:07 PM EST
Civil Twilight 6:31 AM EST 5:37 PM EST
Nautical Twilight 5:58 AM EST 6:10 PM EST
Astronomical Twilight 5:25 AM EST 6:42 PM EST
Moon No Moon Rise 1:21 PM EST (11/7)
Length of Visible Light 11h 05m
Length of Day
10h 07m
Last Quarter, 43% of the Moon is Illuminated
Nov 7
Last Quarter
Nov 13
New
Nov 20
First Quarter
Nov 28
Full
Dec 6
Last Quarter

Hourly Weather History & Observations

Time (EST) Temp. Windchill Dew Point Humidity Pressure Visibility Wind Dir Wind Speed Gust Speed Precip Events Conditions
12:53 AM 32.0 °F 26.4 °F 21.9 °F 66% 29.99 in 10.0 mi East 5.8 mph - N/A   Clear
1:53 AM 30.9 °F 25.2 °F 21.9 °F 69% 30.00 in 10.0 mi East 5.8 mph - N/A   Clear
2:53 AM 30.0 °F 25.2 °F 21.9 °F 72% 29.99 in 10.0 mi ENE 4.6 mph - N/A   Clear
3:53 AM 30.0 °F 24.1 °F 21.0 °F 69% 29.99 in 10.0 mi East 5.8 mph - N/A   Clear
4:53 AM 28.0 °F 22.8 °F 21.0 °F 75% 29.98 in 10.0 mi ENE 4.6 mph - N/A   Clear
5:53 AM 30.0 °F 24.1 °F 21.0 °F 69% 29.98 in 10.0 mi ENE 5.8 mph - N/A   Clear
6:53 AM 28.0 °F 21.7 °F 19.9 °F 72% 30.00 in 10.0 mi ENE 5.8 mph - N/A   Clear
7:53 AM 28.0 °F 21.7 °F 21.0 °F 75% 30.02 in 10.0 mi ENE 5.8 mph - N/A   Clear
8:53 AM 30.9 °F 24.3 °F 21.9 °F 69% 30.04 in 10.0 mi East 6.9 mph - N/A   Clear
9:53 AM 33.1 °F 27.7 °F 23.0 °F 66% 30.04 in 10.0 mi East 5.8 mph - N/A   Clear
10:53 AM 35.1 °F 32.2 °F 24.1 °F 64% 30.05 in 10.0 mi East 3.5 mph - N/A   Clear
11:53 AM 37.0 °F 33.3 °F 23.0 °F 57% 30.02 in 10.0 mi ENE 4.6 mph - N/A   Clear
12:53 PM 39.0 °F 34.8 °F 23.0 °F 53% 30.00 in 10.0 mi NE 5.8 mph - N/A   Clear
1:53 PM 39.9 °F 37.8 °F 21.0 °F 47% 30.01 in 10.0 mi NNE 3.5 mph - N/A   Clear
2:53 PM 39.9 °F 33.4 °F 21.0 °F 47% 30.01 in 10.0 mi North 10.4 mph - N/A   Clear
3:53 PM 39.0 °F 31.8 °F 18.0 °F 43% 30.02 in 10.0 mi NE 11.5 mph - N/A   Clear
4:53 PM 37.0 °F 32.4 °F 19.0 °F 48% 30.04 in 10.0 mi NNE 5.8 mph - N/A   Clear
5:53 PM 35.1 °F 32.2 °F 18.0 °F 50% 30.06 in 10.0 mi North 3.5 mph - N/A   Clear
6:53 PM 33.1 °F 28.7 °F 21.0 °F 61% 30.08 in 10.0 mi North 4.6 mph - N/A   Clear
7:53 PM 34.0 °F 28.8 °F 21.0 °F 59% 30.08 in 10.0 mi NE 5.8 mph - N/A   Clear
8:53 PM 32.0 °F 25.6 °F 21.0 °F 64% 30.08 in 10.0 mi NNE 6.9 mph - N/A   Clear
9:53 PM 30.9 °F 25.2 °F 21.0 °F 67% 30.09 in 10.0 mi North 5.8 mph - N/A   Clear
10:53 PM 30.0 °F 22.4 °F 21.0 °F 69% 30.09 in 10.0 mi NNE 8.1 mph - N/A   Clear
11:53 PM 30.0 °F 21.7 °F 19.9 °F 66% 30.09 in 10.0 mi NNE 9.2 mph - N/A   Clear